User: anonymous   Login
Location: ????????
(42.0488°N, 44.0407°E)
Time: 12:35:28
(UTC+00:00)
Language:

Cosmos 1766 Rocket - Orbit

View from above orbital plane
View from above orbital plane
View from above satellite
View from above satellite

Ground track
Ground track

The orbit data is extracted from the following two-line orbital elements,

1 16882U 86055B   21162.91000032  .00000069  00000-0  55618-5 0  9991
2 16882  82.5204 310.6205 0018374 290.5975 184.3799 14.83271954862534
Epoch (UTC): 11 June 2021 21:50:24
Eccentricity: 0.0018374
inclination: 82.5204°
perigee height: 606 km
apogee height: 632 km
right ascension of ascending node: 310.6205°
argument of perigee: 290.5975°
revolutions per day: 14.83271954
mean anomaly at epoch: 184.3799°
orbit number at epoch: 86253

The dashed part of the orbit path shows where the satellite is in the earth's shadow,  

DLR